C/1998 P1 (Williams) 

Epoch 1998 Nov. 3.0 TT = JDT 2451120.5  

T 1998 Oct. 17.84583 TT                                 Nakano

q   1.1462020            (2000.0)            P               Q

z  +0.0010958      Peri.  294.46737     -0.68092619     -0.69670268

 +/-0.0000088      Node   156.37093     -0.27604233     +0.52963182

e   0.9987440      Incl.  145.72757     -0.67833631     +0.48383419

From 388 observations 1998 Aug. 11-1999 May  15, mean residual 0".71.

   Nongravitational parameters A1 = +31.44 +/- 0.27, A2 = +2.2920 +/- 0.1052,

   A3 = -1.03 +/- 0.04.

Residuals in seconds of arc 

1998/                     981123 897 (3.0-  0.9+)   990207 352  0.5-  1.4-  

980811 422  0.2-  0.3-    981123 897 (3.0-  1.1+)   990208 900  0.0   0.7+  

980811 422  0.4-  0.6-    981124 355 (3.0-  0.9+)   990208 900  0.0   0.4+  

980811 422  0.5-  0.5-    981124 355 (3.0-  1.0+)   990208 352  0.1-  1.7-  

980811 422  0.4-  0.4-    981124 355 (3.1-  1.2+)   990208 352  0.0   0.9-  

980811 430  0.4-  0.3-    981128 900 (4.3-  1.3+)   990208 402  0.4+  0.5+  

980811 430  0.0   0.2+    981128 900 (5.0-  1.5+)   990208 402  0.3+  0.4+  

980811 430  0.0   0.1-    981128 360 (3.3-  0.8+)   990208 402  0.3+  0.6+  

980811 430  0.1+  0.7-    981128 360 (3.2-  0.8+)   990208 160  0.5+  0.5+  

980811 430  0.0   0.0     981128 372 (4.1-  1.3+)   990209 118  0.4+  0.9+  

980811 430  0.3-  0.1+    981203 758 (7.3-  0.6+)   990209 118  0.5+  0.8+  

980811 422  0.3+  0.4-    981203 758 (6.2-  0.8+)   990209 750  0.6+  0.7+  

980811 422  0.3+  0.3-    981203 758 (5.3-  0.6+)   990209 750  0.1+  0.0   

980811 422  0.3+  0.2-    981204 758 (5.7-  0.9+)   990209 750  0.0   0.2+  

980811 422  0.5+  0.1-    981204 758 (6.2-  0.6+)   990209 750  0.2+  0.6+  

980811 422  0.4+  0.1-    981204 758 (6.5-  0.7+)   990209 355  0.3+  0.3+  

980812 844  1.0-  0.1-    981212 351  0.7-  1.1+    990209 355  0.5+  0.3+  

980812 844  1.3-  0.4-    981212 351 (2.7-  1.3+)   990209 355  0.6+  0.4+  

980812 844  0.9-  0.3-    981212 351  1.1-  0.9+    990209 372  0.2-  1.0+  

980812 844  1.8-  0.0     981216 372  1.7-  0.8+    990211 372  0.9+  1.1+  

980812 844 (2.1-  0.2+)   981216 360  1.5-  0.4+    990212 605 (3.1+  0.7-) 

980812 430  0.5-  0.4+    981216 360  1.1-  0.3+    990212 605 (0.4+  2.9-) 

980812 430  0.3-  0.4+    981217 897 (2.2-  0.3+)   990213 750  0.1-  0.8+  

980812 426  0.0   0.2-    981217 897 (2.2-  0.2+)   990213 750  0.2-  1.0+  

980812 426  0.1-  0.2-    981218 402  1.6-  0.2+    990213 372  1.4-  1.3+  

980812 426  0.0   0.2-    981218 402  1.5-  0.0     990213 871  0.1-  1.3-  

980812 426  0.1+  0.3-    981218 402  1.5-  0.0     990213 871  0.1-  1.5-  

980812 430  0.2-  0.1+    981219 372  0.6-  0.2+    990216 071  0.7-  0.7+  

980812 430  0.0   0.5+    981219 355 (2.7-  0.8+)   990216 071  0.1+  0.7-  

980812 426  0.3-  0.1+    981219 355 (2.7-  0.9+)   990216 071  0.1-  0.1+  

980812 422  0.3-  0.1-    981219 355 (2.7-  0.7+)   990216 071  1.0+  0.2+  

980812 422  0.2-  0.2-    981222 900  1.1-  0.0     990216 071  1.2-  0.9+  

980812 422  0.7-  0.3-    981222 900  1.4-  0.1+    990217 372  1.4+  0.3-  

980812 422  0.0   0.2-    981224 360  0.1-  0.4+    990217 360  0.6-  0.3+  

980812 422  0.3-  0.2-    981224 360  0.1-  0.4+    990217 360  0.5-  0.3+  

980812 844  0.2+  1.1-    981224 897  0.7-  0.1-    990217 071  1.1-  0.2+  

980812 844  0.9-  1.4-    981224 897  0.3-  0.2+    990217 071  0.2-  1.0-  

980813 426  0.1-  0.0     981227 402  0.3-  0.3+    990217 071  0.8+  0.5-  

980813 426  0.0   0.1-    981227 402  0.2-  0.3+    990217 071  1.4-  1.4+  

980813 426  0.2-  0.2-    981227 402  0.3-  0.3+    990217 071  0.6+  0.3+  

980813 426  0.2-  0.2+    981227 372  0.9-  0.4+    990218 750  0.3-  0.8+  

980813 426  0.1-  0.0     981229 372  0.7-  0.7+    990218 750  0.4-  1.0+  

980813 422  0.2+  0.1-    981230 758 (5.5-  1.1+)   990218 143 (0.1-  3.4-) 

980813 422  0.1+  0.2-    981230 758 (7.9-  0.5+)   990218 143  1.2+  1.0-  

980813 422  0.1+  0.2-    981230 758 (8.1-  0.3+)   990218 143 (0.8+  2.8-) 

980813 422  0.1-  0.1-    981231 613  0.7-  0.1-    990219 750  1.3-  0.3-  

980814 422  0.1-  0.2+    981231 613  0.3-  0.7+    990219 750  1.2-  1.1+  

980814 422  0.1-  0.2+    1999/                     990219 372  0.6-  0.4+  

980814 422  0.1-  0.3+    990101 351  0.7-  0.3-    990219 871  0.1+  0.0   

980814 426  0.0   0.0     990101 351  1.0-  0.2+    990219 871  0.9-  1.6-  

980814 426  0.5+  0.1+    990101 351  0.9-  0.0     990220 355  0.4-  0.2+  

980814 426  0.0   0.0     990101 351  0.5-  1.4-    990220 355  0.3-  0.2+  

980814 834  0.2+  0.4-    990102 355  0.4-  0.5+    990220 355  0.5-  0.3+  

980815 834  1.5-  0.5+    990102 355  1.0-  0.2-    990221 372 (0.9-  2.1+) 

980815 834  0.4+  0.1-    990102 355  0.8-  0.3+    990221 897  0.2-  1.4+  

980815 834  1.3-  1.4+    990105 900  0.6-  0.4-    990221 897  0.1+  1.5+  

980815 834  0.1+  1.0-    990105 900  0.1-  0.5-    990221 897  0.0   1.3+  

980816 834  0.6+  0.1-    990109 372  0.1-  1.0-    990222 372  0.8-  1.3+  

980816 844  0.0   0.2-    990110 372  0.2-  0.5+    990224 372 (3.7-  1.0+) 

980816 844  0.4+  1.0+    990111 720  0.3+  0.6+    990225 118  1.0-  0.9+  

980816 844  0.7+  1.1+    990111 720  0.0   0.9+    990225 118  1.1-  0.6+  

980816 426  0.5-  0.2-    990111 720  0.8+  0.7+    990225 351  0.0   0.7+  

980816 426  0.6-  0.2-    990111 720  0.2+  0.8+    990225 355  0.3-  0.5-  

980816 426  0.6-  0.1-    990111 720  0.3+  0.5+    990225 355  0.5-  0.2-  

980816 426  0.5-  0.0     990111 720  0.5+  0.6+    990225 351  0.5-  0.5-  

980817 844 (2.5+  3.1-)   990111 720  0.4+  0.8+    990225 355  0.3-  0.3+  

980817 844  0.0   0.1+    990111 720  0.6+  0.5+    990225 351  0.2-  1.1-  

980817 422  0.4-  0.3-    990111 720  0.5+  0.3+    990225 402  0.7-  0.5+  

980817 422  0.4-  0.2-    990111 720  0.5+  0.4+    990225 402  0.8-  0.4+  

980817 834  0.7+  0.6+    990111 720  0.8+  0.4+    990225 402  0.6-  0.3+  

980818 844  0.6-  0.1+    990111 720  0.7+  0.2+    990226 504  0.3-  0.1+  

980818 844 (2.9+  1.0+)   990113 372  0.7+  0.1+    990226 504  0.0   0.4-  

980818 844  1.7+  0.9-    990114 120  1.2+  1.0-    990226 504  0.2+  0.8-  

980818 844 (2.4+  0.2-)   990114 120  0.8+  0.8-    990226 504  0.5-  0.2-  

980818 844  0.4-  1.7+    990114 120  0.8+  0.4-    990226 504  0.5+  0.3+  

980819 834  0.7+  0.2-    990114 120  1.1+  0.7-    990226 504  0.8-  0.1-  

980819 844  0.3-  0.6+    990114 120  0.5+  0.5-    990226 587  0.4-  0.3+  

980819 844  0.5+  0.7+    990114 120  0.3-  0.9-    990226 587  0.4-  0.4+  

980819 834  0.3+  0.6+    990114 120  0.1-  0.5-    990227 758  0.9+  0.3-  

980821 860  0.2+  0.3+    990114 120  0.3-  0.5-    990227 758  1.2+  1.3-  

980821 860  1.3+  0.7-    990115 120 (2.9+  1.1-)   990228 739  0.8-  0.7+  

980821 860  1.0+  0.5-    990115 120 (2.7+  1.2-)   990228 900  1.7-  0.3-  

980821 860  1.6+  0.2-    990115 120  1.2+  0.6-    990228 900  1.5-  0.2+  

980821 844  1.0-  1.0+    990115 120  1.3+  0.1-    990302 739  0.4-  0.6-  

980822 844 (2.0-  1.8+)   990115 896  1.7+  0.1+    990302 739  1.2-  0.8+  

980822 844  0.8-  0.9+    990115 896  0.9+  0.7+    990303 402  0.9-  0.3+  

980823 415 (0.7+  2.1-)   990115 896  0.8+  0.8-    990303 402  0.9-  0.0   

980824 844  0.7+  0.5+    990115 057  1.2-  0.2-    990303 402  0.8-  0.0   

980824 844  0.0   0.4+    990115 057  0.7-  0.5-    990303 903  0.5-  0.2-  

980824 834  0.4+  0.1+    990115 057  1.8-  0.3+    990303 903  0.0   1.2-  

980825 844  0.3+  1.0-    990115 057  0.2+  0.2+    990304 739  1.7-  0.1-  

980825 430  0.6+  0.4+    990115 057 (3.5-  0.1+)   990306 046  0.6-  0.9+  

980825 430  0.4+  0.0     990115 057  1.5+  1.5-    990306 046  0.6-  1.1+  

980825 430  0.6+  0.1+    990115 057  1.6-  1.5+    990306 046  0.7-  0.9+  

980825 430  0.7+  0.2+    990115 057  0.4-  1.0+    990308 118  0.1+  0.0   

980825 430  0.6+  0.1+    990115 057  1.1-  1.1+    990308 118  0.5-  0.6+  

980825 422  0.3+  0.3+    990115 057 (2.2-  1.0-)   990312 113  1.8+  0.8-  

980825 422  0.4+  0.3+    990115 057  0.1+  0.3-    990313 113 (7.8-  2.3+) 

980825 422  0.6+  0.4+    990115 057  1.8-  0.3+    990313 840  0.1+  0.7+  

980825 430  0.8+  0.1+    990115 057  0.6-  0.4+    990313 840 (0.8-  2.0+) 

980825 834  0.7+  0.8+    990115 057  1.1-  1.2+    990315 372  0.1+  1.1+  

980826 844  0.7+  0.2+    990115 057 (2.2-  0.4+)   990316 402  0.2+  0.0   

980826 844  0.8+  0.0     990116 720  0.5-  0.0     990316 402  0.3-  0.0   

980826 844  0.3-  0.6+    990116 720  0.4+  1.0+    990316 402  0.4-  0.2+  

980826 834  0.3-  0.1-    990117 402  1.0+  0.4-    990316 351 (1.4-  3.3+) 

980827 834  0.3-  0.4-    990117 402  0.9+  0.1-    990316 351 (1.0+  2.9-) 

980827 834  0.5-  0.2+    990117 402  1.3+  0.4-    990316 372  1.2-  0.3+  

980828 844  0.4+  0.2-    990117 057  0.1+  0.7-    990317 113  1.0+  0.4-  

980828 844  0.0   0.9+    990117 057  0.1-  0.3-    990317 113  0.2+  0.1-  

980828 844  1.2-  1.5+    990117 057  0.3-  0.5-    990317 113  0.3+  0.2-  

980828 426  0.1+  0.0     990117 057  0.8-  0.9-    990320 840 (3.3+  0.9-) 

980828 426  0.1+  0.1+    990117 057  0.2+  1.1-    990320 840 (3.4+  0.6-) 

980828 426  0.1+  0.1+    990117 057 (2.2-  1.0-)   990320 504  0.4+  0.5-  

980830 844  0.4-  0.2+    990117 057  1.0-  0.3-    990320 504  0.5+  0.5-  

980830 844  0.9-  0.0     990117 057  1.0+  0.1-    990320 504  0.2+  0.6-  

980830 844  0.9-  0.4-    990119 372  0.9+  1.0-    990320 504  0.7+  0.7-  

980831 834  0.1-  0.4+    990121 611  0.7+  1.0-    990322 750  1.2+  1.6-  

980901 860  1.6+  0.6-    990121 611  0.1-  0.4-    990322 750  0.7-  0.2-  

980901 860 (2.6+  0.7-)   990121 113  0.3-  0.8-    990322 750  0.7+  0.5-  

980901 860 (2.0+  0.6-)   990121 113  0.4-  1.2-    990322 372  1.2-  0.1-  

